[Date Prev][Date Next][Thread Prev][Thread Next] - [Date Index][Thread Index][Author Index]

2 Line ISS Keps 10-13



ISS
1 25544U 98067A   03286.37627315  .00015697  00000-0  17928-3 0  6336
2 25544  51.6299 144.6078 0006499  34.9491 319.8045 15.62362739279464


----
Via the sarex mailing list at AMSAT.ORG courtesy of AMSAT-NA.
To unsubscribe, send "unsubscribe sarex" to Majordomo@amsat.org



AMSAT Top AMSAT Home